Regional Weather Roundup
Issued by NWS Northern Indiana

Home | Current Version | Previous Version | Graphics & Text | Print | Product List | Glossary On
Versions: 1 2 3 4 5 6 7 8 9 10 11 12 13 14 15 16 17 18 19 20 21 22 23 24 25 26 27 28 29 30 31 32 33 34 35 36 37 38 39 40 41 42 43 44 45 46 47 48 49 50
000
ASUS43 KIWX 251700
RWRIWX

KIWX WEATHER ROUNDUP
NATIONAL WEATHER SERVICE NORTHERN INDIANA
100 PM EDT FRI JUL 25 2014

NOTE: "FAIR" INDICATES FEW OR NO CLOUDS BELOW 12,000 FEET WITH NO
SIGNIFICANT WEATHER AND/OR OBSTRUCTIONS TO VISIBILITY.

* THESE STATIONS ARE NOT UNDER NWS QUALITY CONTROL. THEY ALSO MAY NOT
  REPORT WEATHER SUCH AS PRECIPITATION OR FOG.

INZ001>027-251800-
NORTHERN INDIANA

CITY           SKY/WX    TMP DP  RH WIND       PRES   REMARKS
VALPARAISO     CLOUDY    75  56  51 S13G20    30.04F
SOUTH BEND     CLOUDY    74  56  53 S9        30.04F
ELKHART*       CLOUDY    72  54  53 S6        30.05F
GOSHEN         CLOUDY    74  55  51 SW9       30.05F
ANGOLA*        MOSUNNY   73  54  49 W9        30.06F
FORT WAYNE     CLOUDY    72  53  51 SW8       30.07F
PERU/GRISSOM   MOSUNNY   73  57  56 S9        30.06F

$$
INZ028>050-251800-
CENTRAL INDIANA

CITY           SKY/WX    TMP DP  RH WIND       PRES   REMARKS
LAFAYETTE      CLOUDY    75  56  51 SW9       30.06F
KOKOMO*        MOSUNNY   73  55  53 SW6       30.06F
MUNCIE*        MOSUNNY   74  52  46 VRB3      30.08F
INDIANAPOLIS   PTSUNNY   71  53  52 SW7       30.08F

$$
MIZ043>046-050>051-056>058-064>065-071>073-077>080-251800-
SOUTHWEST LOWER MICHIGAN

CITY           SKY/WX    TMP DP  RH WIND       PRES   REMARKS
BATTLE CREEK   PTSUNNY   73  52  47 W8        30.05F
BENTON HARBOR  CLOUDY    74  54  49 S9        30.02F
COLDWATER*     PTSUNNY   73  53  49 SW12      30.05F
HILLSDALE*     MOSUNNY   74  54  49 SW6       30.06F
HOLLAND        PTSUNNY   75  52  44 SW13      30.02F
GRAND RAPIDS   PTSUNNY   75  54  47 SW9       30.02F
KALAMAZOO      PTSUNNY   74  50  42 W5        30.04F
STURGIS*       PTSUNNY   72  57  60 SW12      30.05F
THREE RIVERS*  FAIR      73  55  54 SW8       30.05F

$$
OHZ001>008-015>018-024>025-251800-
NORTHWEST OHIO

CITY           SKY/WX    TMP DP  RH WIND       PRES   REMARKS
DEFIANCE       PTSUNNY   75  53  46 SW12      30.07F
FINDLAY        PTSUNNY   76  52  43 W9        30.08F
TOLEDO EXPRESS PTSUNNY   73  53  49 S8        30.06F
TOLEDO METCALF PTSUNNY   74  52  46 S10       30.07F
LIMA           CLOUDY    73  53  49 W7        30.10S

$$
&&


USA.gov is the U.S. government's official web portal to all federal, state and local government web resources and services.